カタログに戻る

TAIJING-3 04

運用中軍事SSO
NORAD 64088·PAYLOAD·🇨🇳 China
この衛星名は、まだ公式ソースで確認されていません。

打ち上げ May 21, 2025 から Jiuquan Satellite Launch Center

Loading…

次のパス (今後24時間)

TLE

最新Source: Space-Track

元期: Sep 14, 2026, 21:42 UTC

1 64088U 25108B   26257.90459101  .00007459  00000-0  35222-3 0  9995
2 64088  97.4658 332.7053 0008816  65.5521 294.6633 15.19689581 72989

AllMySatでTAIJING-3 04をリアルタイム追跡

Download on the App Store